OpenBCM V1.13 (Linux)

Packet Radio Mailbox

DB0FHN

[JN59NK Nuernberg]

 Login: GUEST





  
I0OJJ  > AMSAT    27.08.26 22:47l 340 Lines 15962 Bytes #999 (0) @ WW
BID : 42E_IR0EQ
Read: DJ6UX GUEST
Subj: 2Line Orbital Elements
Path: DB0FHN<DB0RKB<DK0WUE<IW2OHX<GB7OSW<GB7BED<VA2RIZ<W1BKW<N2NOV<VE3CGR<
      I0OJJ<IR0EQ
Sent: 260825/0027z @:IR0EQ.ITA.EU [Rome] $:42E_IR0EQ

>From i0ojj%ir0eq.ita.eu@i0ojj.ampr.org Tue Aug 25 02:29:00 2026
Received: from i0ojj.ampr.org by i0ojj.ampr.org (JNOS2.0q.1) with SMTP
	id AA17064900 ; Tue, 25 Aug 2026 02:29:00 +0200
Message-Id: <42E_IR0EQ@i0ojj.bbs>
>From: i0ojj@ir0eq.ita.eu
X-JNOS-User-Port: Telnet   (i0ojj @ 44.27.18.9)  ->   Sending message

>From i0ojj@rgate.ampr.org Tue Aug 25 02:27:02 2026
Received: from rgate.ampr.org by rgate.ampr.org (JNOS2.0q.1) with SMTP
	id AA5270 ; Tue, 25 Aug 2026 02:27:02 +0200
Received: by rgate.ampr.org with SMTP
	id AA5267 ; Tue, 25 Aug 2026 02:26:03 +0200
Message-Id: <5268@rgate.ampr.org>
>From: i0ojj@rgate.ampr.org

SB KEPS @ AMSAT  $ORB26237.1
2Line Orbital Elements 26237.AMSAT

QST de W1STR

AMSAT Orbital Elements for Amateur Satellites in TLE Format
>From Orbital Analysis Office
New England Sci-Tech STEM Education Center
Natick MA August 25, 2026
To all radio amateurs


These element sets describe the orbits of various satellites 
in use by the amateur radio community. For details see:
www.amsat.org/keplerian-elements-formats/

A daily update of element sets is available at:
www.amsat.org/tle/daily-bulletin.txt
or without bulletin text:
www.amsat.org/tle/dailytle.txt


AO-07
1 07530U 74089B   26236.27892306 -.00000028  00000-0  11372-3 0  9997
2 07530 101.9921 250.2374 0012255   3.2594   7.1380 12.53699200369050
UO-11
1 14781U 84021B   26236.61314321  .00001153  00000-0  12242-3 0  9990
2 14781  97.8129 201.4554 0006685 328.9523  31.1300 14.90942051267320
LO-19
1 20442U 90005G   26235.50831170  .00000072  00000-0  42285-4 0  9993
2 20442  98.8842 259.1639 0011737  14.2970 345.8543 14.34139286912049
AO-27
1 22825U 93061C   26236.17522057  .00000056  00000-0  38253-4 0  9992
2 22825  98.6828 303.5458 0007259 259.2627 100.7738 14.30956996716727
FO-29
1 24278U 96046B   26234.99810505 -.00000005  00000-0  34201-4 0  9992
2 24278  98.5190  74.7120 0348806 283.1085  73.1351 13.53276958482209
GO-32
1 25397U 98043D   26236.41053792  .00000052  00000-0  42525-4 0  9999
2 25397  99.0128 230.9077 0001982  51.4157 308.7199 14.24439584461044
ISS
1 25544U 98067A   26236.43525466  .00008197  00000-0  15348-3 0  9993
2 25544  51.6332 322.3014 0007699  78.6726 281.5127 15.49604681582335
NO-44
1 26931U 01043C   26235.97866662  .00000080  00000-0  60923-4 0  9999
2 26931  67.0496  68.9288 0005650 270.3796  89.6659 14.31977234300159
SO-50
1 27607U 02058C   26236.52869240  .00000793  00000-0  11089-3 0  9993
2 27607  64.5512 277.5176 0073098 249.9417 109.3811 14.83174583274599
CO-55
1 27844U 03031E   26236.45778142  .00000230  00000-0  11830-3 0  9990
2 27844  98.6766 244.1664 0009392 355.0395   5.0690 14.24371208201396
RS-22
1 27939U 03042A   26236.66113582  .00000654  00000-0  10876-3 0  9990
2 27939  98.3489  62.9695 0012407  54.9093   9.3735 14.73571474225632
CO-65
1 32785U 08021C   26236.58133213  .00004380  00000-0  27350-3 0  9996
2 32785  97.8336 219.4757 0009544 146.5464 213.6370 15.09998892995511
CO-66
1 32791U 08021J   26236.43913328  .00017414  00000-0  51659-3 0  9991
2 32791  97.7553 237.7228 0004761  82.1663 278.0120 15.34881759997753
RS-30
1 32953U 08025A   26236.58533777  .00000042  00000-0  22673-3 0  9990
2 32953  82.5064 312.9017 0020175 159.5805 200.6086 12.43182201828194
SRMSAT
1 37841U 11058D   26236.65891193  .00000370  00000-0  57000-4 0  9995
2 37841  19.9733   5.0180 0011608 237.5362 239.0287 14.11588211767503
ZACUBE-1
1 39417U 13066B   26236.38738718  .00005230  00000-0  40051-3 0  9997
2 39417  97.8037 199.0507 0041940  24.8253 335.4976 15.01607912690962
Delfi-N3xt
1 39428U 13066N   26236.56111833  .00006658  00000-0  56991-3 0  9997
2 39428  97.8291 156.8282 0073086 340.4801  19.3624 14.95848008684842
GOMX-1
1 39430U 13066Q   26236.61529590  .00001641  00000-0  25160-3 0  9990
2 39430  97.6454  72.7651 0127146 217.1276 142.1087 14.69629621679967
LO-74
1 39440U 13066AA  26236.31198594  .00001972  00000-0  18408-3 0  9998
2 39440  97.8943 185.6159 0057439 159.9326 200.4171 14.94154809687168
AO-73
1 39444U 13066AE  26236.38181511  .00006980  00000-0  42377-3 0  9996
2 39444  97.8340 209.3165 0034724 334.7608  25.1922 15.10334451689959
DTUSAT-2
1 40030U 14033W   26236.44657030  .00005684  00000-0  30142-3 0  9992
2 40030  98.0898 238.5631 0008044  15.8050 344.3430 15.15789770663022
LILACSAT-2
1 40908U 15049K   26236.59192911  .00017699  00000-0  27885-3 0  9991
2 40908  97.4598 276.1173 0006565  21.0813 339.0709 15.53605981606364
Lapan A3
1 41603U 16040E   26236.64997733  .00002813  00000-0  89098-4 0  9994
2 41603  97.1543 230.5833 0011739 123.9352 236.3009 15.33483483565309
CAS-2T
1 41847U 16066G   26236.24823162  .00000429  00000-0  70441-4 0  9995
2 41847  98.3779 311.2051 0340081 283.0877  73.2568 14.44813468514625
TechnoSat
1 42829U 17042E   26236.25943164  .00003114  00000-0  22136-3 0  9998
2 42829  97.4355  31.3767 0016707 218.2340 141.7703 15.05286297496948
AO-91
1 43017U 17073E   26236.52006350  .00008440  00000-0  35860-3 0  9994
2 43017  97.4605 102.3409 0149760  92.4666 269.3720 15.13595055475720
S-Net D
1 43186U 18014G   26236.60181985  .00004216  00000-0  21525-3 0  9994
2 43186  97.5280 140.9634 0009328 132.3402 227.8623 15.17217524469137
S-Net B
1 43187U 18014H   26236.48274762  .00004452  00000-0  22732-3 0  9990
2 43187  97.5282 140.8337 0010005 129.1648 231.0475 15.17184212469116
S-Net A
1 43188U 18014J   26236.60032559  .00004193  00000-0  21402-3 0  9996
2 43188  97.5296 141.1726 0009901 129.4845 230.7265 15.17225956469139
S-Net C
1 43189U 18014K   26236.55298772  .00004469  00000-0  22812-3 0  9994
2 43189  97.5313 141.2108 0011383 124.0051 236.2266 15.17174616467677
Ten-Koh
1 43677U 18084G   26235.49462450  .00002456  00000-0  18657-3 0  9997
2 43677  98.0747  70.7007 0008644 251.8301 108.1982 15.03169880426278
PO-101
1 43678U 18084H   26236.58576477  .00001133  00000-0  94640-4 0  9992
2 43678  98.1208  75.8042 0010474 304.8350  55.1887 15.00672225426470
QO-100
1 43700U 18090A   26236.55232390  .00000000  00000-0  00000-0 0  9990
2 43700   0.0279 122.7932 0002485  59.7563  14.9007  1.00270027 28363
MinXSS-2
1 43758U 18099A   26236.49217315  .00040875  00000-0  68741-3 0  9998
2 43758  97.4485 314.9960 0006025  24.4321 335.7216 15.51618568424707
AO-95
1 43770U 18099N   26236.60481516  .00010297  00000-0  37879-3 0  9994
2 43770  97.4331 296.6401 0010132 105.2298 255.0062 15.28019919423668
SNUSat 2
1 43782U 18099AA  26236.10241483  .00007470  00000-0  32232-3 0  9996
2 43782  97.4011 288.4647 0011439  63.4156 296.8251 15.22759950423366
SnugLite
1 43784U 18099AC  26236.38733106  .00009886  00000-0  35903-3 0  9997
2 43784  97.3819 290.0382 0004159  67.9687 292.1995 15.28489770423738
ITASat 1
1 43786U 18099AE  26236.11654433  .00005384  00000-0  25398-3 0  9991
2 43786  97.3981 286.2863 0014028 112.9315 247.3402 15.19795667423220
EAGLET 1
1 43790U 18099AJ  26236.56187178  .00003589  00000-0  20441-3 0  9991
2 43790  97.4180 284.4180 0012668 107.2968 252.9650 15.13381254422670
ESEO
1 43792U 18099AL  26236.55915647  .00001176  00000-0  88193-4 0  9991
2 43792  97.3942 271.0117 0013966  99.0849 261.1959 15.04424923422087
JO-97
1 43803U 18099AX  26236.62279797  .00015872  00000-0  45910-3 0  9998
2 43803  97.4076 299.7724 0006050  42.5314 317.6397 15.35682704424123
Suomi 100
1 43804U 18099AY  26236.13051517  .00011246  00000-0  39082-3 0  9997
2 43804  97.4135 296.3185 0010583  48.2722 311.9422 15.29854667423808
ISAT
1 43879U 18111D   26236.11450590  .00233094  00000-0  10993-2 0  9992
2 43879  97.5798 177.3407 0007946 101.0616 259.1546 15.82418392421842
UWE-4
1 43880U 18111E   26236.53339866  .00036871  00000-0  65113-3 0  9991
2 43880  97.5819 168.2810 0009919  81.4152 278.8223 15.50224981421353
Sparrow
1 43881U 18111F   26228.98401838  .16116594  28263-5  19760-3 0  9992
2 43881  97.5857 177.1140 0010462 202.8700 157.2139 16.49385238421037
Prox-1
1 44339U 19036A   26236.57144239  .00012650  00000-0  11876-2 0  9995
2 44339  23.9957  16.9121 0006145 103.3116 256.8070 14.92042480383692
Taurus 1
1 44530U 19059C   26236.60620365  .00004501  00000-0  71355-3 0  9991
2 44530  98.6477  45.7394 0009636  97.7003 262.5297 14.72713614368715
TO-108
1 44881U 19093C   26236.63407000  .00001491  00000-0  17389-3 0  9992
2 44881  97.7487 307.1823 0012408 216.8702 143.1662 14.86611811361587
RS-44
1 44909U 19096E   26236.56860520  .00000024  00000-0  56238-4 0  9996
2 44909  82.5211 294.2737 0217114 344.7890  14.6749 12.79748916311091
SALSAT
1 46495U 20068K   26235.95590157  .00006873  00000-0  23443-3 0  9996
2 46495  97.8879 243.2009 0011187  69.3904 290.8534 15.30648655325720
CSS (TIANHE-1)
1 48274U 21035A   26236.32435285  .00015463  00000-0  19530-3 0  9997
2 48274  41.4682 268.3876 0001589 252.2897 107.7768 15.59217005303805
TeikyoSat 4
1 49396U 21102B   26236.06185346  .00001327  00000-0  85984-4 0  9990
2 49396  97.3649 262.9055 0013507  63.2508 297.0102 15.09712485262968
Z-Sat
1 49399U 21102E   26236.59854384  .00004506  00000-0  21947-3 0  9996
2 49399  97.3300 269.8509 0016830  14.9251 345.2477 15.18726073263820
KOSEN 1
1 49402U 21102H   26236.54230697  .00006342  00000-0  23657-3 0  9991
2 49402  97.3146 277.3934 0012275 332.6483  27.4109 15.27694935264457
HO-113
1 50466U 21131B   26236.63940870  .00000677  00000-0  22247-3 0  9995
2 50466  98.4976 328.6581 0002915 246.6278 113.4605 14.41411472244976
SNUGLITE 2
1 52899U 22065F   26235.40236931  .00000814  00000-0  16289-3 0  9996
2 52899  98.2293  20.1525 0007803 163.7189 196.4265 14.64451853220835
UmKA 1 (RS40S)
1 57172U 23091G   26236.57170603  .00005307  00000-0  23877-3 0  9990
2 57172  97.4998 295.0160 0011109 235.9852 124.0329 15.21481533174409
